This is the latest recevied weather packets stored in our database for station/object S54L-12. If no packets are shown the sender has not sent any weather packets the latest 10 day(s).
| Time | Temp. | Humidity | Pressure | Rain* | Wind** | Luminosity | Snow |
|---|---|---|---|---|---|---|---|
| 1777176778 | 5° C | 75% | 921.8 hPa | - | - | - | - |
| 1777175878 | 5° C | 75% | 921.4 hPa | - | - | - | - |
| 1777174978 | 5° C | 74% | 921.5 hPa | - | - | - | - |
| 1777174078 | 5° C | 72% | 921.4 hPa | - | - | - | - |
| 1777173181 | 5.56° C | 72% | 921.2 hPa | - | - | - | - |
| 1777172280 | 5.56° C | 70% | 921.3 hPa | - | - | - | - |
| 1777171380 | 5.56° C | 69% | 921.1 hPa | - | - | - | - |
| 1777170480 | 6.11° C | 67% | 921.1 hPa | - | - | - | - |
| 1777169580 | 6.11° C | 67% | 921 hPa | - | - | - | - |
| 1777168680 | 6.67° C | 65% | 920.9 hPa | - | - | - | - |
| 1777167780 | 6.67° C | 63% | 920.9 hPa | - | - | - | - |
| 1777166879 | 7.22° C | 63% | 920.9 hPa | - | - | - | - |
| 1777165979 | 7.22° C | 61% | 920.9 hPa | - | - | - | - |
| 1777165079 | 7.78° C | 58% | 920.9 hPa | - | - | - | - |
| 1777164179 | 8.33° C | 57% | 920.9 hPa | - | - | - | - |
| 1777163279 | 8.33° C | 55% | 920.9 hPa | - | - | - | - |
| 1777162379 | 9.44° C | 52% | 921 hPa | - | - | - | - |
| 1777161479 | 10° C | 49% | 921 hPa | - | - | - | - |
| 1777160579 | 10.56° C | 47% | 921 hPa | - | - | - | - |
| 1777159679 | 10.56° C | 46% | 921.1 hPa | - | - | - | - |
| 1777158779 | 11.11° C | 46% | 921 hPa | - | - | - | - |
| 1777157879 | 11.11° C | 45% | 921 hPa | - | - | - | - |
| 1777156078 | 11.11° C | 45% | 921 hPa | - | - | - | - |
| 1777155178 | 11.67° C | 46% | 921 hPa | - | - | - | - |
| 1777154278 | 11.11° C | 46% | 921.1 hPa | - | - | - | - |
* Rain since midnight (hover to see other rain measurements)
** Current wind speed in m/s (hover to see current wind gust speed)